GW3210 Weather Reports


time (UTC)temp
C
wind
direction
speed
KPH
gust
KPH
rain 1hr
cm
rain 24hr
cm
rain mn
cm
humidity
%
barometer
mb
20260906192616 13 158 1.6 1.6 0.00 0.66 0.66 84 1018.5
20260906191616 13 158 3.2 4.8 0.00 0.66 0.66 84 1018.4
20260906190616 13 180 3.2 6.4 0.00 0.66 0.66 84 1018.5
20260906185616 12 158 1.6 1.6 0.00 0.66 0.66 84 1018.5
20260906184636 12 135 1.6 3.2 0.03 0.66 0.66 84 1018.5
20260906183616 12 135 3.2 4.8 0.08 0.66 0.66 84 1018.5
20260906182616 13 315 1.6 1.6 0.13 0.66 0.66 83 1018.5
20260906181616 13 0.0 0.0 0.18 0.66 0.66 83 1018.4
20260906180616 13 315 1.6 3.2 0.20 0.66 0.66 84 1018.3
20260906175616 13 158 1.6 1.6 0.25 0.66 0.66 83 1018.3
20260906174616 13 158 1.6 3.2 0.28 0.64 0.64 84 1018.2
20260906173636 12 0.0 0.0 0.25 0.58 0.58 84 1018.1
20260906172616 12 0.0 1.6 0.23 0.53 0.53 84 1018.2
20260906171636 12 0.0 1.6 0.18 0.48 0.48 83 1018.2
20260906170616 12 0.0 1.6 0.18 0.46 0.46 83 1018.2
20260906165616 12 0.0 1.6 0.13 0.41 0.41 82 1018.2
20260906164616 12 0.0 1.6 0.10 0.36 0.36 82 1018.2
20260906163616 12 158 1.6 3.2 0.13 0.33 0.33 82 1018.1
20260906162616 12 158 4.8 6.4 0.13 0.30 0.30 82 1018.2
20260906161616 12 0.0 1.6 0.15 0.30 0.30 82 1018.1
20260906160615 12 158 1.6 1.6 0.15 0.28 0.28 82 1017.9
20260906155615 12 158 3.2 3.2 0.15 0.28 0.28 82 1018.0
20260906154616 12 135 3.2 4.8 0.15 0.25 0.25 82 1018.0
20260906153616 12 135 3.2 4.8 0.10 0.20 0.20 82 1017.9
20260906152616 12 180 3.2 6.4 0.08 0.18 0.18 82 1018.0
20260906151635 12 158 3.2 3.2 0.05 0.15 0.15 81 1017.9
20260906150615 12 135 4.8 6.4 0.05 0.13 0.13 82 1017.9
20260906145615 12 158 3.2 4.8 0.05 0.13 0.13 82 1017.9
20260906144615 12 158 1.6 3.2 0.03 0.10 0.10 82 1017.7
20260906143635 12 0.0 1.6 0.05 0.10 0.10 81 1017.7
20260906142616 12 0.0 1.6 0.05 0.10 0.10 82 1017.6
20260906141615 13 0.0 1.6 0.08 0.10 0.10 82 1017.5
20260906140615 13 158 4.8 6.4 0.05 0.08 0.08 82 1017.4
20260906135615 13 135 4.8 6.4 0.05 0.08 0.08 81 1017.3
20260906134656 13 135 3.2 4.8 0.05 0.08 0.08 80 1017.2
20260906133615 13 158 3.2 6.4 0.05 0.05 0.05 79 1017.1
20260906132615 13 0.0 1.6 0.05 0.05 0.05 78 1017.2
20260906131636 13 0.0 0.0 0.03 0.03 0.03 77 1017.2
20260906130615 13 0.0 0.0 0.03 0.03 0.03 76 1017.2
20260906125615 13 248 1.6 3.2 0.03 0.03 0.03 75 1017.2
20260906124615 13 0.0 1.6 0.03 0.03 0.03 73 1017.2
20260906123635 13 270 3.2 3.2 0.00 0.00 0.00 71 1016.8
20260906122635 13 0.0 0.0 0.00 0.00 0.00 70 1017.1
20260906121615 13 293 1.6 3.2 0.00 0.00 0.00 70 1017.1
20260906120616 13 0.0 0.0 0.00 0.00 0.00 70 1017.1
20260906115615 13 293 1.6 3.2 0.00 0.00 0.00 70 1017.0
20260906114639 13 293 1.6 1.6 0.00 0.00 0.00 70 1017.1
20260906113615 13 293 1.6 3.2 0.00 0.00 0.00 70 1017.1
20260906112615 13 293 1.6 3.2 0.00 0.00 0.00 69 1017.4
20260906111615 13 225 1.6 3.2 0.00 0.00 0.00 69 1017.3
20260906110636 13 225 1.6 1.6 0.00 0.00 0.00 69 1017.3
20260906105616 13 225 1.6 1.6 0.00 0.00 0.00 68 1017.1
20260906104637 13 0.0 1.6 0.00 0.00 0.00 67 1017.1
20260906103617 13 0.0 0.0 0.00 0.00 0.00 67 1017.1
20260906102617 13 0.0 1.6 0.00 0.00 0.00 66 1017.1
20260906101617 13 0.0 0.0 0.00 0.00 0.00 66 1017.2
20260906100617 13 0.0 0.0 0.00 0.00 0.00 66 1017.1
20260906095617 13 0.0 0.0 0.00 0.00 0.00 65 1017.2
20260906094617 13 0.0 0.0 0.00 0.00 0.00 66 1017.3
20260906093617 13 0.0 0.0 0.00 0.00 0.00 66 1017.2
20260906092617 13 0.0 0.0 0.00 0.00 0.00 66 1017.2
20260906091617 13 0.0 0.0 0.00 0.00 0.00 66 1017.1
20260906090637 13 0.0 0.0 0.00 0.00 0.00 66 1017.2
20260906085617 13 0.0 0.0 0.00 0.00 0.00 66 1017.4
20260906084617 13 0.0 1.6 0.00 0.00 0.00 67 1017.3
20260906083639 13 0.0 1.6 0.00 0.00 0.00 66 1017.3
20260906082617 13 0.0 0.0 0.00 0.00 0.00 66 1017.0
20260906081617 13 0.0 0.0 0.00 0.00 0.00 66 1017.0
20260906080617 13 0.0 1.6 0.00 0.00 0.00 66 1017.0
20260906075657 14 0.0 0.0 0.00 0.00 0.00 66 1017.1
20260906065615 15 0.0 0.0 0.00 0.00 0.00 65 1017.0
20260906064615 15 158 3.2 4.8 0.00 0.00 0.00 65 1017.0
20260906063615 15 158 3.2 4.8 0.00 0.00 0.00 65 1017.1
20260906062616 15 180 3.2 6.4 0.00 0.00 0.00 64 1017.1
20260906061615 15 158 3.2 6.4 0.00 0.00 0.00 64 1017.1
20260906060655 15 180 3.2 4.8 0.00 0.00 0.00 63 1017.1
20260906055615 15 180 3.2 4.8 0.00 0.00 0.00 64 1017.0
20260906054615 15 270 3.2 4.8 0.00 0.00 0.00 64 1017.1
20260906053636 14 293 1.6 3.2 0.00 0.00 0.00 64 1017.0
20260906052615 14 113 1.6 1.6 0.00 0.00 0.00 63 1017.0
20260906051635 14 0.0 0.0 0.00 0.00 0.00 63 1017.2
20260906050635 15 0.0 0.0 0.00 0.00 0.00 62 1017.2
20260906045615 15 0.0 1.6 0.00 0.00 0.00 62 1017.2
20260906044615 15 135 3.2 3.2 0.00 0.00 0.00 62 1017.3
20260906043637 15 135 3.2 4.8 0.00 0.00 0.00 61 1017.4
20260906042637 16 0.0 0.0 0.00 0.00 0.00 60 1017.4
20260906041637 16 158 1.6 1.6 0.00 0.00 0.00 60 1017.6
20260906040617 16 158 1.6 3.2 0.00 0.00 0.00 59 1017.5
20260906035617 16 158 1.6 3.2 0.00 0.00 0.00 58 1017.4
20260906034617 16 158 1.6 1.6 0.00 0.00 0.00 55 1017.4
20260906033617 17 0.0 1.6 0.00 0.00 0.00 52 1017.3
20260906032617 17 0.0 0.0 0.00 0.00 0.00 51 1017.0
20260906031617 17 0.0 0.0 0.00 0.00 0.00 49 1017.0
20260906030617 17 0.0 1.6 0.00 0.00 0.00 48 1016.9
20260906025617 18 315 1.6 3.2 0.00 0.00 0.00 47 1017.0
20260906024617 18 315 4.8 6.4 0.00 0.00 0.00 47 1017.0
20260906023617 18 338 3.2 4.8 0.00 0.00 0.00 47 1017.1
20260906022617 18 293 3.2 4.8 0.00 0.00 0.00 49 1017.1
20260906021617 19 0.0 1.6 0.00 0.00 0.00 50 1017.2
20260906020617 20 338 1.6 1.6 0.00 0.00 0.00 47 1017.3
20260906015617 20 0.0 1.6 0.00 0.00 0.00 46 1017.4
20260906014617 21 0.0 1.6 0.00 0.00 0.00 44 1017.4
20260906013637 21 0.0 1.6 0.00 0.00 0.00 41 1017.4
20260906012617 21 0.0 0.0 0.00 0.00 0.00 40 1017.4
20260906011617 22 338 1.6 3.2 0.00 0.00 0.00 38 1017.4
20260906010637 22 0.0 1.6 0.00 0.00 0.00 40 1017.5
20260906005616 22 338 1.6 3.2 0.00 0.00 0.00 39 1017.5
20260906004637 21 338 3.2 4.8 0.00 0.00 0.00 41 1017.4
20260906003617 21 0.0 0.0 0.00 0.00 0.00 40 1017.5
20260906002617 21 0.0 1.6 0.00 0.00 0.00 39 1017.5
20260906001617 21 0.0 1.6 0.00 0.00 0.00 39 1017.5
20260906000617 22 338 3.2 4.8 0.00 0.00 0.00 37 1017.5
20260905235616 22 23 1.6 3.2 0.00 0.00 0.00 37 1017.5
20260905234616 21 338 3.2 6.4 0.00 0.00 0.00 39 1017.5
20260905233618 21 0 1.6 1.6 0.00 0.00 0.00 39 1017.4
20260905232617 21 45 1.6 3.2 0.00 0.00 0.00 38 1017.6
20260905231636 21 0 3.2 3.2 0.00 0.00 0.00 37 1017.8
20260905230617 22 338 6.4 9.7 0.00 0.00 0.00 37 1017.7
20260905225616 21 248 1.6 3.2 0.00 0.03 0.00 35 1017.8
20260905224617 21 338 3.2 6.4 0.00 0.03 0.00 38 1017.6
20260905223656 21 270 6.4 9.7 0.00 0.05 0.00 36 1017.7
20260905222616 21 270 4.8 6.4 0.00 0.05 0.00 36 1017.8
20260905221617 22 270 4.8 12.9 0.00 0.08 0.00 36 1017.9
20260905220616 22 293 9.7 12.9 0.00 0.08 0.00 38 1017.8
20260905215616 21 315 6.4 9.7 0.00 0.10 0.00 38 1018.1
20260905214616 22 293 6.4 11.3 0.00 0.13 0.00 39 1018.1
20260905213616 22 225 4.8 6.4 0.00 0.13 0.00 39 1018.1
20260905212616 22 338 6.4 9.7 0.00 0.13 0.00 39 1018.1
20260905211616 22 158 3.2 6.4 0.00 0.13 0.00 38 1018.1
20260905210616 22 293 9.7 12.9 0.00 0.13 0.00 39 1018.2
20260905205616 21 293 3.2 8.0 0.00 0.13 0.00 40 1018.4
20260905204616 22 248 9.7 16.1 0.00 0.13 0.00 38 1018.6
20260905203616 22 338 4.8 8.0 0.00 0.13 0.00 39 1018.6
20260905202656 22 293 1.6 3.2 0.00 0.13 0.00 43 1018.6
20260905201616 22 248 9.7 12.9 0.00 0.13 0.00 40 1018.6
20260905200616 22 315 9.7 14.5 0.00 0.13 0.00 47 1018.6
20260905195616 21 293 8.0 12.9 0.00 0.13 0.00 46 1018.5
20260905194616 21 0 4.8 8.0 0.00 0.13 0.00 50 1018.6
20260905193616 20 293 4.8 11.3 0.00 0.13 0.00 50 1018.7